www.pogodaiklimat.ru

Погода и климат >> Архив погоды >> Канада >> Нунавут >> Юрика


ПОГОДА в Юрике

  • Прогноз погоды в Юрике
  • Монитор погоды в Юрике

АРХИВ ПОГОДЫ в Юрике

Время (UTC), дата Ветер
(напр.,м/с)
 
Видим.   Явления Облачность Т
(С)
Тd
(С)
f
(%)
Тe
(С)
Тes
(С)
Комфортность P
(гПа)
Po
(гПа)
Тmin
(С)
Tmax
(С)
R
(мм)
R24
(мм)
S
(см)
12 13.06 ЮВ 4 н/о {осадки} н/о +2.8 +2.5 98 -2 -2 1013.9 1012.6 +1.9 +5.2 3 <0.5
15 13.06 ЮВ 5 н/о н/о +3.3 +2.8 97 -2 -2 1013.3 1012.0 1
18 13.06 Ю 8 н/о {осадки} н/о +3.4 +2.1 91 -3 -3 1012.7 1011.4 +1.9 +4.2 2
21 13.06 ЮВ 6 н/о {осадки} н/о +3.6 +2.3 91 -2 -2 1013.1 1011.8 1
00 14.06 ЮВ 5 н/о {осадки} н/о +2.5 +1.8 95 -3 -3 1014.0 1012.7 +2.0 +4.1 1
03 14.06 ЮВ 7 н/о н/о +3.7 +2.4 91 -2 -2 1013.9 1012.6 0.2
06 14.06 ЮВ 6 н/о н/о +2.9 +2.0 94 -3 -3 1014.6 1013.3 +2.0 +4.2 0.2 18
09 14.06 ЮВ 6 н/о н/о +2.7 +1.9 94 -3 -3 1016.2 1014.9
12 14.06 ЮВ 10 н/о н/о +2.9 +1.3 89 -4 -4 1016.4 1015.1 +2.3 +4.2 <0.5
15 14.06 ЮВ 8 н/о н/о +3.4 +1.7 89 -3 -3 1017.6 1016.3
18 14.06 Ю 9 н/о н/о +4.7 +1.0 77 -2 -2 1017.5 1016.2 +2.3 +4.7
21 14.06 ЮВ 7 н/о н/о +4.8 +0.9 76 -1 -1 1017.4 1016.1
00 15.06 ЮВ 6 н/о н/о +4.9 +1.1 76 -0 -0 1017.4 1016.1 +2.3 +5.9
03 15.06 Ю 7 н/о н/о +4.6 +1.8 82 -1 -1 1016.9 1015.6
06 15.06 ЮВ 7 н/о н/о +3.4 +1.3 86 -3 -3 1017.4 1016.1 +2.3 +5.9 18
09 15.06 ЮВ 5 н/о н/о +4.4 +1.5 81 -1 -1 1018.1 1016.8
12 15.06 ЮВ 4 н/о н/о +3.9 +1.1 82 -1 -1 1019.1 1017.8 +2.9 +5.9 <0.5
15 15.06 Ю 6 н/о н/о +3.5 +1.0 84 -2 -2 1019.9 1018.6
18 15.06 Ю 4 н/о н/о +3.6 +0.9 82 -1 -1 1020.1 1018.8 +2.9 +5.1
21 15.06 Ю 7 н/о н/о +4.3 +1.1 80 -1 -1 1019.8 1018.5
00 16.06 ЮВ 4 н/о н/о +4.1 +1.2 81 -0 -0 1019.6 1018.3 +2.9 +4.9
03 16.06 В 4 н/о н/о +4.1 +2.6 90 -0 -0 1019.7 1018.4
06 16.06 ЮВ 4 н/о н/о +2.8 +1.8 93 -2 -2 1019.0 1017.7 +2.6 +5.1 8
09 16.06 ЮВ 4 н/о н/о +3.5 +1.8 89 -1 -1 1018.6 1017.3
12 16.06 ЮВ 6 н/о н/о +4.1 +1.0 80 -1 -1 1017.7 1016.4 +2.4 +5.1
15 16.06 ЮВ 8 н/о н/о +4.5 +0.4 75 -1 -1 1016.8 1015.5
18 16.06 В 4 н/о н/о +6.4 +0.9 68 +3 +3 1016.2 1014.9 +2.4 +6.4
21 16.06 Ю 9 н/о н/о +5.3 +0.5 71 -1 -1 1015.0 1013.7
00 17.06 Ю 9 н/о н/о +5.1 +0.5 72 -1 -1 1014.3 1013.0 +2.4 +6.5
03 17.06 Ю 9 н/о н/о +4.2 +1.4 82 -2 -2 1014.2 1012.9
06 17.06 Ю 7 н/о н/о +3.7 +1.8 87 -2 -2 1013.9 1012.6 +2.4 +6.5 14
09 17.06 Ю 7 н/о н/о +3.4 +1.4 87 -3 -3 1013.2 1011.9
12 17.06 Ю 6 н/о н/о +3.0 +1.6 91 -3 -3 1013.0 1011.7 +2.9 +6.5
15 17.06 ЮВ 5 н/о н/о +2.3 +1.2 92 -3 -3 1012.4 1011.1
18 17.06 ЮВ 6 н/о н/о +3.0 +1.8 92 -3 -3 1011.4 1010.1 +2.0 +3.7
21 17.06 ЮВ 3 н/о н/о +4.1 +1.2 81 0 0 1010.5 1009.2
00 18.06 ЮВ 6 н/о н/о +3.7 +0.8 81 -2 -2 1008.8 1007.5 +2.0 +4.9
03 18.06 ЮВ 5 н/о н/о +3.7 +0.1 77 -1 -1 1008.1 1006.8
06 18.06 ЮВ 6 н/о н/о +2.1 +0.5 89 -4 -4 1007.2 1005.9 +1.7 +4.9 8
09 18.06 ЮВ 6 н/о н/о +1.6 -1.0 83 -5 -5 1006.4 1005.1
12 18.06 ЮВ 6 н/о н/о +2.3 -2.0 73 -4 -4 1006.1 1004.8 +1.5 +4.9
15 18.06 Ю 6 н/о н/о +2.7 -1.8 72 -3 -3 1005.1 1003.8
18 18.06 ЮВ 3 н/о н/о +4.1 -1.1 69 +1 +1 1004.3 1003.0 +1.5 +4.1
21 18.06 Ю 3 н/о н/о +4.1 -1.8 65 +1 +1 1003.6 1002.3
00 19.06 ЮВ 3 н/о н/о +3.4 -1.1 72 -0 -0 1003.5 1002.2 +1.5 +4.8
03 19.06 ЮВ 1 н/о н/о +4.6 -0.9 67 +4 +4 1003.3 1002.0
06 19.06 С 3 н/о н/о +4.5 0.0 73 +1 +1 1002.5 1001.2 +1.5 +4.9 8
09 19.06 С 3 н/о н/о +4.7 +1.7 81 +2 +2 1001.8 1000.5
12 19.06 С 6 н/о н/о +5.4 +0.8 72 +1 +1 1000.8 999.5 +2.6 +4.9
15 19.06 С 8 н/о н/о +5.4 -0.3 67 -0 -0 999.6 998.3
18 19.06 СЗ 10 н/о н/о +4.7 -0.3 70 -2 -2 998.5 997.2 +2.6 +5.8
21 19.06 С 9 н/о н/о +4.4 +0.3 75 -2 -2 998.9 997.6
00 20.06 З 9 н/о н/о +2.3 -0.5 82 -5 -5 999.6 998.3 +1.3 +5.8
03 20.06 З 4 н/о н/о +2.9 -0.1 81 -2 -2 1000.3 999.0
06 20.06 С 6 н/о н/о +2.2 -0.9 80 -4 -4 1001.3 1000.0 +1.0 +5.8 20

 

Местоположение метеостанции Юрика (Нунавут, Канада): широта 79.99 долгота -85.93 высота над уровнем моря 10 м.

В архиве по умолчанию представлена погода в Юрике за последнюю неделю. Архивные данные за месяц целиком и за предыдущие месяцы, начиная с января 2011 года, Вы можете получить, выбрав интересующий диапазон дат из раскрывающегося списка и нажав кнопку "Ввод!".


*Определитесь, кто Вы:
робот инопланетянин человек

Внимание! Время в таблицах - всемирное. Для получения местного времени необходимо прибавить поправку, которая равна -6 ч.

Смотрите также архив погоды в соседних городах и на ближайших метеорологических станциях:

Погода в Юрике (Нунавут, Канада) (1 км)
Погода в Сарнии (Онтарио, Канада) (343 км)
Погода в Исачсене (Нунавут, Канада) (383 км)
Погода в Mittarfik Qaanaaq (Гренландия) (453 км)
Погода в Kitsissut (Гренландия) (472 км)
Погода в Алерте (Нунавут, Канада) (482 км)
Погода в Аэропорту Ресольют Бэй (Нунавут, Канада) (624 км)
Погода в Ресольют Бэй (Нунавут, Канада) (624 км)
Погода в Арктик Бей (Нунавут, Канада) (778 км)
Погода в Понд-Инлете (Нунавут, Канада) (836 км)

Пояснения к столбцам:

Ветер - указаны скорость ветра в м/с - средняя за 10 мин, порывы в срок и между сроками (в фигурных скобках) и направление, откуда дует ветер: С - северный, СВ - северо-восточный, В - восточный, ЮВ - юго-восточный, Ю - южный, ЮЗ - юго-западный, З - западный, СЗ - северо-западный.
Видимость - горизонтальная дальность видимости в метрах или километрах. При видимости от 1 до 10 км при отсутствии осадков обычно наблюдается дымка, при ухудшении видимости до 1 км и менее - туман. В сухую погоду видимость может ухудшаться дымом, пылью или мглою.
Явления - указаны атмосферные явления, наблюдавшиеся в срок или в последний час перед сроком; фигурными скобками обозначены явления, наблюдавшиеся между сроками (за 1-3 часа до срока); квадратными скобками обозначены град или гололедные отложения с указанием их диаметра в мм.
Облачность - указаны через наклонную черту общая и нижняя облачность в баллах и высота нижней границы облаков в метрах; квадратными скобками обозначены формы облаков: Ci - перистые, Cs - перисто-слоистые, Cc - перисто-кучевые, Ac - высококучевые, As - высокослоистые, Sc - слоисто-кучевые, Ns - слоисто-дождевые, Cu - кучевые, Cb - кучево-дождевые. Подробнее классификацию облаков см. в Атласе облаков (PDF).
T - Температура воздуха - температура, измеренная на высоте 2 м над землей.
Td - Температура точки росы - температура, при понижении до которой содержащийся в воздухе водяной пар достигнет насыщения.
f - Относительная влажность воздуха - влажноcть воздуха, измеренная на высоте 2 м над землей.
Te - Эффективная температура - температура, которую ощущает одетый по сезону человек в тени. Характеристика душности погоды. При расчете учитывается влияние влажности воздуха и скорости ветра на теплоощущения человека.
Tes - Эффективная температура на солнце - температура, которую ощущает человек, с поправкой на солнечный нагрев. Характеристика знойности погоды. Зависит от высоты солнца над горизонтом, облачности и скорости ветра. Ночью, в пасмурную погоду, а также при ветре 12 м/с и более поправка равна нулю.
P - Атмосферное давление - приведенное к уровню моря атмосферное давление.
Po - Атмосферное давление - измеренное на уровне метеостанции атмосферное давление.
Tmin - Минимальная температура - минимум температуры воздуха на высоте 2 м над землей.
Tmax - Максимальная температура - максимум температуры воздуха на высоте 2 м над землей.
R - Количество осадков - Количество выпавших осадков за период времени, мм. При наведении курсора мыши на число - период времени, за который выпало указанное количество осадков.
R24 - Количество осадков - Количество выпавших осадков за 24 часа, мм.
S - Снежный покров - Высота снежного покрова, см. При наведении курсора мыши на число - состояние снежного покрова и степень покрытия местности в баллах.